Tracking 18840 objects as of 20-November-2017
HD Live streaming from Space Station
objects crossing your sky now

FENGYUN 1C DEB

Track FENGYUN 1C DEB now!
10-day predictions


NORAD ID: 39537
Int'l Code: 1999-025EWE
Perigee: 848.2 km
Apogee: 1,136.2 km
Inclination: 99.1 °
Period: 104.8 minutes
Semi major axis: 7363 km
RCS: Unknown
Launch date: May 10, 1999
Source: People's Republic of China (PRC)
Launch site: Taiyaun Space Center, China (TSC)

Note: This is SATELLITE DEBRIS
aabbcc
Your satellite tracking list
Your tracking list is empty




NASA's NSSDC Master Catalog

Two Line Element Set (TLE):
1 39537U 99025EWE 17319.60134378 +.00000429 +00000-0 +43781-3 0  9996
2 39537 099.1421 188.9367 0195534 242.8207 115.2892 13.74046116186690
Source of the keplerian elements: AFSPC